Regional Weather Roundup
Issued by NWS Spokane, WA

Home | Current Version | Previous Version | Text Only | Print | Product List | Glossary On
Versions: 1 2 3 4 5 6 7 8 9 10 11 12 13 14 15 16 17 18 19 20 21 22 23 24 25 26 27 28 29 30 31 32 33 34 35 36 37 38 39 40 41 42 43 44 45 46 47 48 49 50
000
NZUS01 KOTX 300410
RWROTX
EASTERN WASHINGTON/NORTHERN IDAHO ROUNDUP
NATIONAL WEATHER SERVICE, SPOKANE WA
900 PM PDT SAT AUG 29 2015

Note: "fair" indicated few or no clouds below 12,000 feet with no
significant weather and/or obstructions to visibility.

...NORTHEAST WASHINGTON AND NORTHERN IDAHO PANHANDLE...

CITY           SKY/WX    TMP DP  RH WIND       PRES   REMARKS
SPOKANE INTL   CLOUDY    64  43  46 SW9       29.85R
SPOKANE DOWNTO MOCLDY    68  42  38 SW8       29.84R
COEUR D ALENE  PTCLDY    63  50  63 S10       29.85R
DEER PARK      MOCLDY    63  44  50 S8        29.83R
SANDPOINT      PTCLDY    54  48  82 CALM      29.84R
BONNERS FERRY  FAIR      61  46  59 S6        29.83S

...SOUTHEAST WASHINGTON AND SOUTHERN IDAHO PANHANDLE...

CITY           SKY/WX    TMP DP  RH WIND       PRES   REMARKS
WALLA WALLA    CLOUDY    72  43  35 S7        29.85R
PULLMAN/MOSCOW CLOUDY    62  45  53 NW5       29.90R
LOWELL           N/A     62  58  86 CALM      29.89R

...COLUMBIA BASIN...

CITY           SKY/WX    TMP DP  RH WIND       PRES   REMARKS
EPHRATA        CLEAR     64  49  57 SW13      29.76R
MOSES LAKE     CLEAR     67  49  52 S8        29.79R
TRI CITIES     PTCLDY    70  47  43 NW9       29.82R
HERMISTON      PTCLDY    68  47  46 W8        29.82R
PENDLETON      MOCLDY    68  43  40 S5        29.86R

...EAST SLOPES CASCADES...

CITY           SKY/WX    TMP DP  RH WIND       PRES   REMARKS
THE DALLES     PTCLDY    67  54  63 NW12      29.82R
YAKIMA         CLEAR     67  48  50 S13       29.80R
ELLENSBURG     PTCLDY    66  44  45 SW7       29.79S
WENATCHEE      CLEAR     70  45  40 N8        29.74S
OMAK           PTCLDY    65  39  38 S10       29.71S

...SOUTHERN BRITISH COLUMBIA...

CITY           SKY/WX    TMP DP  RH WIND       PRES   REMARKS
PENTICTON      MOCLDY    72  43  35 S15       29.64R
CASTLEGAR      MOCLDY    68  45  42 VRB2      29.75R SMOKE
CRANBROOK      MOCLDY    61  41  48 S14       29.84S

...WESTERN MONTANA...

CITY           SKY/WX    TMP DP  RH WIND       PRES   REMARKS
MISSOULA       MOCLDY    70  46  42 N14       29.85R HAZE

...NEIGHBORING CITIES...

CITY           SKY/WX    TMP DP  RH WIND       PRES   REMARKS
SEATTLE        RAIN      61  57  87 W9        29.78R FOG
CALGARY        PTCLDY    64  39  39 S12G18    29.63R



USA.gov is the U.S. government's official web portal to all federal, state and local government web resources and services.